This is the latest recevied weather packets stored in our database for station/object KM4NDN. If no packets are shown the sender has not sent any weather packets the latest 1 day(s).
| Time | Temp. | Humidity | Pressure | Rain* | Wind** | Luminosity | Snow |
|---|---|---|---|---|---|---|---|
| 1778033956 | 8.89° C | 95% | 1008 hPa | 4.83 mm | - | 0 W/m² | - |
| 1778033653 | 8.89° C | 95% | 1007.9 hPa | 4.83 mm | - | 0 W/m² | - |
| 1778033350 | 8.89° C | 95% | 1007.6 hPa | 3.05 mm | - | 0 W/m² | - |
| 1778033048 | 8.89° C | 95% | 1007.7 hPa | 1.27 mm | - | 0 W/m² | - |
| 1778032745 | 8.89° C | 95% | 1007.6 hPa | 1.78 mm | - | 0 W/m² | - |
| 1778032139 | 8.89° C | 95% | 1007.7 hPa | 3.05 mm | - | 0 W/m² | - |
| 1778031836 | 8.89° C | 95% | 1007.5 hPa | 3.05 mm | - | 0 W/m² | - |
| 1778031532 | 8.89° C | 95% | 1007.6 hPa | 1.27 mm | - | 0 W/m² | - |
| 1778030926 | 8.89° C | 95% | 1007.5 hPa | 0 mm | - | 0 W/m² | - |
| 1778030623 | 8.89° C | 95% | 1007.1 hPa | 1.78 mm | - | 0 W/m² | - |
| 1778030320 | 8.89° C | 95% | 1007 hPa | 1.78 mm | - | 0 W/m² | - |
| 1778030017 | 8.89° C | 95% | 1006.9 hPa | 0 mm | - | 0 W/m² | - |
| 1778029412 | 8.89° C | 95% | 1006.9 hPa | 1.27 mm | - | 0 W/m² | - |
| 1778029109 | 8.89° C | 95% | 1007 hPa | 1.78 mm | - | 0 W/m² | - |
| 1778028806 | 8.89° C | 95% | 1006.9 hPa | 1.78 mm | - | 0 W/m² | - |
| 1778028502 | 8.89° C | 95% | 1007 hPa | 0 mm | - | 0 W/m² | - |
| 1778027895 | 8.89° C | 95% | 1007 hPa | 0 mm | - | 0 W/m² | - |
| 1778027592 | 9.44° C | 95% | 1007.1 hPa | 1.78 mm | - | 0 W/m² | - |
| 1778026985 | 10° C | 96% | 1007.1 hPa | 0 mm | - | 2 W/m² | - |
| 1778026075 | 9.44° C | 96% | 1007.2 hPa | 0 mm | - | 4 W/m² | - |
| 1778025167 | 9.44° C | 95% | 1007 hPa | 3.05 mm | - | 12 W/m² | - |
| 1778022746 | 10° C | 95% | 1006.7 hPa | 3.56 mm | - | 6 W/m² | - |
| 1778019712 | 10.56° C | 95% | 1006.8 hPa | 4.83 mm | - | 56 W/m² | - |
| 1778019106 | 10° C | 94% | 1007.4 hPa | 3.05 mm | - | 8 W/m² | - |
| 1778018501 | 10° C | 94% | 1006.8 hPa | 6.1 mm | - | 21 W/m² | - |
* Rain latest hour (hover to see other rain measurements)
** Current wind speed in m/s (hover to see current wind gust speed)